Location: Unspecified
(35.6961°N, 0.0000°E)
Time: 02:33:39
(UTC+00:00)

S-56A Canister/Altair - Pass Details

Date: 05 October 2020
Orbit: 632 x 2500 km, 38.9° (Epoch: 20 October)

Event Time Altitude Azimuth Distance (km) Brightness Sun altitude
Rises 17:38:28 0° 290° (WNW) 6,181 13.5 -1.0°
Reaches altitude 10° 17:42:38 10° 289° (WNW) 5,134 13.1 -1.9°
Maximum altitude 17:57:14 70° 210° (SSW) 2,214 10.0 -4.8°
Drops below altitude 10° 18:07:55 10° 129° (SE) 3,873 10.7 -7.0°
Sets 18:10:37 0° 126° (SE) 4,634 11.0 -7.5°
